Location: Vesunti
(61.5000°N, 22.8333°E)
Time: 09:32:43
(UTC+00:00)

NOSS 3-1 (A) - Pass Details

Date: 17 February 2020
Orbit: 761 x 1452 km, 63.4° (Epoch: 26 March)

Event Time Altitude Azimuth Distance (km) Brightness Sun altitude
Exits shadow 01:51:45 48° 169° (S) 1,588 4.3 -30.2°
Drops below altitude 10° 01:57:49 10° 143° (SE) 3,385 6.3 -29.6°
Sets 02:00:54 0° 140° (SE) 4,426 7.0 -29.2°
